Regional Weather Roundup
Issued by NWS

Home | Current Version | Previous Version | Graphics & Text | Print | Product List | Glossary Off
Versions: 1 2 3 4 5 6 7 8 9 10 11 12 13 14 15 16 17 18 19 20 21 22 23 24 25 26 27 28 29 30 31 32 33 34 35 36 37 38 39 40 41 42 43 44 45 46 47 48 49 50

000
ASUS43 KMKX 182100
RWRWI

WISCONSIN REGIONAL WEATHER ROUNDUP
NATIONAL WEATHER SERVICE MILWAUKEE/SULLIVAN WI
300 PM CST WED JAN 18 2017

NOTE: "FAIR" INDICATES FEW OR NO CLOUDS BELOW 12,000 FEET WITH NO
SIGNIFICANT WEATHER AND/OR OBSTRUCTIONS TO VISIBILITY.

WIZ001-002-006>008-014>016-023>028-182200-
NORTHWEST WISCONSIN

CITY           SKY/WX    TMP DP  RH WIND       PRES   REMARKS
SUPERIOR ARPT  SUNNY     42  27  55 SW8       29.80R
ASHLAND        SUNNY     44  28  53 SW12      29.81R
HAYWARD        SUNNY     40  27  59 S12       29.83R WCI  33
SIREN          SUNNY     40  28  61 S8        29.83F
CUMBERLAND     SUNNY     36  30  80 S9        29.85S WCI  29
RICE LAKE      SUNNY     39  30  69 S7        29.87F WCI  34
CHETEK         NOT AVBL
LADYSMITH      SUNNY     40  29  67 SW9       29.87F WCI  33
EAU CLAIRE     NOT AVBL
MENOMONIE      SUNNY     39  31  72 MISG      29.89S
NEW RICHMOND   SUNNY     38  30  72 S12       29.86F WCI  31
OSCEOLA        SUNNY     39  32  74 S10       29.88S WCI  32
$$

WIZ003>005-009-010-017-018-182200-
NORTH CENTRAL WISCONSIN

CITY           SKY/WX    TMP DP  RH WIND       PRES   REMARKS
MANITOWISH WTR NOT AVBL
ARBOR VITAE    SUNNY     44  27  51 W7        29.80S
WOODRUFF       SUNNY     44  27  51 W7        29.80S
RHINELANDER    SUNNY     40  30  67 SW14      29.82F WCI  32
EAGLE RIVER    SUNNY     42  27  54 SW14      29.79S
LAND O LAKES   SUNNY     47  25  42 SW7       29.80R
PHILLIPS       SUNNY     38  29  70 SW12      29.82S WCI  30
TOMAHAWK       SUNNY     39  29  66 SW5       29.85R
MEDFORD        SUNNY     36  30  78 S10       29.86F WCI  28
MERRILL        SUNNY     39  31  74 W13G22      N/A  WCI  31
$$

WIZ029-030-035-036-043>047-182200-
CENTRAL WISCONSIN

CITY           SKY/WX    TMP DP  RH WIND       PRES   REMARKS
WAUSAU         SUNNY     39  30  70 SW10      29.87F WCI  32
MOSINEE        SUNNY     37  32  81 SW12      29.89S WCI  30
MARSHFIELD     SUNNY     40  30  67 SW7       29.88S
STEVENS POINT  SUNNY     38  31  74 SW12      29.90F WCI  31
WAUPACA        SUNNY     44  32  63 SW10      29.92F
WAUTOMA        NOT AVBL
WISC RAPIDS    SUNNY     40  31  70 SW9       29.91F WCI  34
CAMP DOUGLAS   NOT AVBL
$$

WIZ011>013-019>022-031-037>040-048>050-182200-
NORTHEAST WISCONSIN

CITY           SKY/WX    TMP DP  RH WIND       PRES   REMARKS
ANTIGO         SUNNY     34  34  99 SW13      29.86S WCI  25
SHAWANO        SUNNY     41  32  71 SW8G16    29.90R
OCONTO         SUNNY     37  31  78 SW10G16   29.89S WCI  30
STURGEON BAY   SUNNY     37  31  78 SW15      29.89S WCI  28
GREEN BAY      SUNNY     37  33  85 SW10      29.91F WCI  30
MANITOWOC      NOT AVBL
APPLETON       MOSUNNY   36  34  93 SW16      29.91F WCI  26
CLINTONVILLE   SUNNY     39  32  75 SW10      29.90F WCI  32
OSHKOSH        SUNNY     35  30  82 S13G22    29.94F WCI  26
$$

WIZ032>034-041-042-053>061-182200-
SOUTHWEST WISCONSIN

CITY           SKY/WX    TMP DP  RH WIND       PRES   REMARKS
LA CROSSE      SUNNY     38  31  76 S6        29.95S WCI  33
SPARTA         SUNNY     38  31  75 S9        29.95S WCI  32
VIROQUA        MOSUNNY   33  32  95 S12       29.94F WCI  24
BOSCOBEL       CLOUDY    36  31  82 S7        30.01S WCI  30
PRAIRIE DU CHI CLOUDY    35  30  83 S6        30.01S WCI  30
PLATTEVILLE    CLOUDY    35  34  94 SW12      30.01R WCI  27
$$

WIZ056-057-062-063-064-067-068-182200-
SOUTH CENTRAL WISCONSIN

CITY           SKY/WX    TMP DP  RH WIND       PRES   REMARKS
REEDSBURG      SUNNY     35  32  87 S6        29.95F WCI  30
BARABOO/DELLS  SUNNY     36  30  80 SW8       29.95F WCI  29
LONE ROCK      CLOUDY    35  29  78 SW12      30.00F WCI  27
MINERAL POINT  CLOUDY    34  34 100 SW9       29.99S FOG     WCI  26
MADISON        MOSUNNY   35  30  82 S10       30.00F WCI  27
MIDDLETON      SUNNY     37  32  81 SW8       30.00F WCI  31
WATERTOWN      CLOUDY    33  32  96 SW9       30.00F WCI  25
MONROE         CLOUDY    32  32 100 S10       30.00R FOG     WCI  24
JANESVILLE     PTSUNNY   36  34  93 SW9       30.02F WCI  29
$$

WIZ051-052-058>065-066-070>072-182200-
SOUTHEAST WISCONSIN

CITY           SKY/WX    TMP DP  RH WIND       PRES   REMARKS
MILWAUKEE      CLOUDY    36  31  82 W12G21    30.02F WCI  28
WAUKESHA       CLOUDY    32  30  93 W12       30.03R WCI  23
MILWAUKEE/TIMM CLOUDY    36  30  80 W17       30.03S WCI  25
RACINE         CLOUDY    35  30  82 W6        30.05R WCI  30
KENOSHA        CLOUDY    35  32  88 W14       30.04R FOG     WCI  26
FOND DU LAC    SUNNY     36  29  75 S16       29.95F WCI  26
SHEBOYGAN      SUNNY     37  31  78 SW16      29.96F WCI  28
WEST BEND      CLOUDY    34  32  93 SW10G20   29.99S WCI  26
JUNEAU         CLOUDY    33  31  92 S15       30.00F WCI  23
$$

LSZ147-162-182200-
LAKE SUPERIOR

STATION/POSITION TIME  TEMP    WIND        PRES    WAVE
                       AIR SEA DIR/SP/G            HT/PER
                 (UTC) (F)     (DEG/KT/KT) (MB)    (FT/S)
DEVILS ISLAND    2000   35     240/ 13/ 15 1009.1R
PORT WING        2040   38     260/  7/ 10 1009.5R
SAXON HARBOR     2030   48     200/  7/ 12 1008.8R
$$

LMZ867-665-643>646-182200-
LAKE MICHIGAN

STATION/POSITION TIME  TEMP    WIND        PRES    WAVE
                       AIR SEA DIR/SP/G            HT/PER
                 (UTC) (F)     (DEG/KT/KT) (MB)    (FT/S)
NORTHPORT PIER   2040   41      CALM  / 11 1011.2S
SISTER BAY       1935   43     220/ 11/ 13   N/A
KEWAUNEE LAKESHO 2030   37     220/  9/ 13 1012.6F
SHEBOYGAN LAKESH 2000   36     180/ 15/ 16 1015.2F
PORT WASHINGTON  2040   38     250/ 11/ 16 1016.6F
MILWAUKEE LAKESH 2030   36     250/ 11/ 12   N/A
KENOSHA   LAKESH 2000   35     240/ 10/ 19 1017.3
$$

TC  - TEMPERATURE IN CELSIUS
VSB - VISIBILITY IN STATUTE MILES
WCI - WIND CHILL INDEX
HX  - HEAT INDEX





USA.gov is the U.S. government's official web portal to all federal, state and local government web resources and services.